Weather History for Elizabethton, TN

Change the Weather History Date:

Sunday, February 9, 2014

  Actual Average (KTRI) Record (KTRI)
Temperature  
Mean Temperature 36 °F 38 °F  
Max Temperature 42 °F 48 °F 70 °F (1957)
Min Temperature 30 °F 27 °F 1 °F (1995)
Degree Days  
Heating Degree Days 29 27  
Month to date heating degree days 253  
Since 1 July heating degree days 2907  
Cooling Degree Days 0 0  
Month to date cooling degree days 0  
Year to date cooling degree days 0  
Moisture  
Dew Point 33 °F    
Average Humidity 84    
Maximum Humidity 100    
Minimum Humidity 70    
Precipitation  
Precipitation 0.00 in 0.12 in 2.48 in (1994)
Month to date precipitation 1.12  
Year to date precipitation 4.49  
Snow  
Snow 0.00 in 0.10 in - ()
Month to date snowfall 1.2  
Since 1 July snowfall 8.6  
Snow Depth -    
Sea Level Pressure  
Sea Level Pressure 30.08 in    
Wind  
Wind Speed 2 mph (West)    
Max Wind Speed 12 mph    
Max Gust Speed -    
Visibility 10 miles    
Events Rain    
T = Trace of Precipitation, MM = Missing Value Source: NWS Daily Summary

Daily Weather History Graph

Daily Weather History Graph

Search for Another Location

Airport:

Trip Planner

Search our weather history database for the weather conditions in past years. The results will help you decide how hot, cold, wet, or windy it might be!

Date:

Astronomy

Feb. 09, 2014 Rise Set
Actual Time 7:22 AM EST 6:03 PM EST
Civil Twilight 6:56 AM EST 6:30 PM EST
Nautical Twilight 6:25 AM EST 7:00 PM EST
Astronomical Twilight 5:55 AM EST 7:30 PM EST
Moon 1:45 PM EST (2/9) 3:23 AM EST (2/9)
Length of Visible Light 11h 34m
Length of Day
10h 40m
Waxing Gibbous, 77% of the Moon is Illuminated
Feb 9
Waxing Gibbous
Feb 14
Full
Feb 22
Last Quarter
Mar 1
New
Mar 8
First Quarter

Hourly Weather History & Observations

Time (EST) Temp. Windchill Dew Point Humidity Pressure Visibility Wind Dir Wind Speed Gust Speed Precip Events Conditions
12:15 AM 35.6 °F - 33.8 °F 93% 30.16 in 10.0 mi Calm Calm - N/A   Overcast
12:35 AM 35.6 °F - 33.8 °F 93% 30.15 in 10.0 mi Calm Calm - N/A   Overcast
12:55 AM 35.6 °F - 33.8 °F 93% 30.15 in 10.0 mi Calm Calm - N/A   Overcast
1:15 AM 35.6 °F - 33.8 °F 93% 30.14 in 10.0 mi Calm Calm - N/A   Overcast
1:35 AM 35.6 °F - 33.8 °F 93% 30.13 in 10.0 mi Calm Calm - N/A   Overcast
1:55 AM 35.6 °F - 33.8 °F 93% 30.11 in 10.0 mi Calm Calm - N/A   Overcast
2:15 AM 35.6 °F - 32.0 °F 87% 30.08 in 10.0 mi Calm Calm - N/A   Overcast
2:35 AM 35.6 °F 32.8 °F 32.0 °F 87% 30.07 in 10.0 mi NE 3.5 mph - N/A   Overcast
2:55 AM 35.6 °F - 32.0 °F 87% 30.07 in 10.0 mi Calm Calm - N/A   Overcast
3:15 AM 35.6 °F - 32.0 °F 87% 30.08 in 10.0 mi Calm Calm - N/A   Overcast
3:35 AM 35.6 °F - 33.8 °F 93% 30.08 in 10.0 mi Calm Calm - N/A   Overcast
3:55 AM 35.6 °F - 33.8 °F 93% 30.09 in 10.0 mi Calm Calm - N/A   Overcast
4:15 AM 35.6 °F - 32.0 °F 87% 30.09 in 10.0 mi Calm Calm - N/A   Overcast
4:35 AM 35.6 °F - 33.8 °F 93% 30.11 in 10.0 mi Calm Calm - N/A   Overcast
4:55 AM 35.6 °F 30.7 °F 32.0 °F 87% 30.12 in 10.0 mi WSW 5.8 mph - N/A   Overcast
5:15 AM 35.6 °F 31.7 °F 32.0 °F 87% 30.12 in 10.0 mi WSW 4.6 mph - N/A   Overcast
5:35 AM 35.6 °F - 32.0 °F 87% 30.11 in 10.0 mi Calm Calm - N/A   Overcast
5:55 AM 35.6 °F - 32.0 °F 87% 30.11 in 10.0 mi Calm Calm - N/A   Overcast
6:15 AM 35.6 °F - 32.0 °F 87% 30.10 in 10.0 mi Calm Calm - N/A   Overcast
6:35 AM 33.8 °F - 32.0 °F 93% 30.09 in 10.0 mi Calm Calm - N/A   Overcast
6:55 AM 33.8 °F 30.8 °F 32.0 °F 93% 30.08 in 10.0 mi ENE 3.5 mph - N/A   Overcast
7:15 AM 33.8 °F - 30.2 °F 87% 30.07 in 10.0 mi Calm Calm - N/A   Scattered Clouds
7:35 AM 33.8 °F - 30.2 °F 87% 30.07 in 10.0 mi Calm Calm - N/A   Clear
7:55 AM 30.2 °F - 30.2 °F 100% 30.08 in 10.0 mi Calm Calm - N/A   Partly Cloudy
8:15 AM 33.8 °F - 30.2 °F 87% 30.08 in 10.0 mi Calm Calm - N/A   Mostly Cloudy
8:35 AM 33.8 °F - 32.0 °F 93% 30.08 in 10.0 mi Calm Calm - N/A   Overcast
8:55 AM 35.6 °F - 32.0 °F 87% 30.09 in 10.0 mi Calm Calm - N/A   Overcast
9:15 AM 35.6 °F - 32.0 °F 87% 30.09 in 10.0 mi Calm Calm - N/A   Overcast
9:35 AM 35.6 °F - 32.0 °F 87% 30.09 in 10.0 mi Calm Calm - N/A   Overcast
9:55 AM 35.6 °F - 32.0 °F 87% 30.09 in 10.0 mi Calm Calm - N/A   Overcast
10:15 AM 37.4 °F - 33.8 °F 87% 30.07 in 10.0 mi Calm Calm - N/A   Overcast
10:35 AM 37.4 °F - 33.8 °F 87% 30.07 in 10.0 mi Calm Calm - N/A   Overcast
10:55 AM 37.4 °F - 33.8 °F 87% 30.09 in 10.0 mi Calm Calm - N/A   Overcast
11:15 AM 39.2 °F - 33.8 °F 81% 30.09 in 10.0 mi Calm Calm - N/A   Overcast
11:35 AM 39.2 °F - 33.8 °F 81% 30.09 in 10.0 mi Calm Calm - N/A   Overcast
11:55 AM 39.2 °F 37.0 °F 33.8 °F 81% 30.08 in 10.0 mi West 3.5 mph - N/A   Light Drizzle
12:15 PM 41.0 °F 34.7 °F 33.8 °F 76% 30.07 in 10.0 mi WSW 10.4 mph - N/A   Overcast
12:35 PM 41.0 °F 35.8 °F 33.8 °F 76% 30.06 in 10.0 mi West 8.1 mph - N/A   Overcast
12:55 PM 41.0 °F 36.4 °F 33.8 °F 76% 30.05 in 10.0 mi West 6.9 mph - N/A   Overcast
1:15 PM 41.0 °F 35.8 °F 33.8 °F 76% 30.04 in 10.0 mi West 8.1 mph - N/A   Overcast
1:35 PM 41.0 °F 35.8 °F 33.8 °F 76% 30.04 in 10.0 mi West 8.1 mph - N/A   Overcast
1:55 PM 41.0 °F 34.7 °F 33.8 °F 76% 30.03 in 10.0 mi West 10.4 mph - N/A   Overcast
2:15 PM 41.0 °F 36.4 °F 33.8 °F 76% 30.02 in 10.0 mi WSW 6.9 mph - N/A   Overcast
2:35 PM 41.0 °F 35.8 °F 33.8 °F 76% 30.01 in 10.0 mi WSW 8.1 mph - N/A   Overcast
2:55 PM 41.0 °F 35.8 °F 33.8 °F 76% 30.01 in 10.0 mi WNW 8.1 mph - N/A   Overcast
3:15 PM 42.8 °F 38.6 °F 33.8 °F 70% 30.02 in 10.0 mi WSW 6.9 mph - N/A   Overcast
3:35 PM 42.8 °F 38.0 °F 33.8 °F 70% 30.01 in 10.0 mi West 8.1 mph - N/A   Overcast
3:55 PM 42.8 °F 39.3 °F 33.8 °F 70% 30.00 in 10.0 mi WSW 5.8 mph - N/A   Overcast
4:15 PM 42.8 °F 38.6 °F 33.8 °F 70% 30.01 in 10.0 mi WSW 6.9 mph - N/A   Overcast
4:35 PM 42.8 °F 39.3 °F 33.8 °F 70% 30.02 in 10.0 mi WSW 5.8 mph - N/A   Overcast
4:55 PM 42.8 °F 38.0 °F 33.8 °F 70% 30.02 in 10.0 mi West 8.1 mph - N/A   Overcast
5:15 PM 42.8 °F 38.0 °F 33.8 °F 70% 30.03 in 10.0 mi WSW 8.1 mph - N/A   Overcast
5:35 PM 42.8 °F 37.5 °F 33.8 °F 70% 30.04 in 10.0 mi West 9.2 mph - N/A   Overcast
5:55 PM 42.8 °F 36.6 °F 33.8 °F 70% 30.05 in 10.0 mi West 11.5 mph - N/A   Overcast
6:15 PM 41.0 °F 35.2 °F 33.8 °F 76% 30.07 in 10.0 mi West 9.2 mph - N/A   Overcast
6:35 PM 41.0 °F 37.1 °F 33.8 °F 76% 30.08 in 10.0 mi West 5.8 mph - N/A   Overcast
6:55 PM 41.0 °F 37.1 °F 33.8 °F 76% 30.08 in 10.0 mi WSW 5.8 mph - N/A   Overcast
7:15 PM 41.0 °F 35.8 °F 33.8 °F 76% 30.08 in 10.0 mi West 8.1 mph - N/A   Overcast
7:35 PM 39.2 °F 35.0 °F 33.8 °F 81% 30.09 in 10.0 mi WSW 5.8 mph - N/A   Overcast
7:55 PM 39.2 °F 33.0 °F 33.8 °F 81% 30.10 in 10.0 mi West 9.2 mph - N/A   Overcast
8:15 PM 37.4 °F 32.1 °F 33.8 °F 87% 30.12 in 10.0 mi NW 6.9 mph - N/A   Overcast
8:35 PM 37.4 °F 29.8 °F 32.0 °F 81% 30.12 in 10.0 mi WNW 11.5 mph - N/A   Overcast
8:55 PM 35.6 °F 32.8 °F 33.8 °F 93% 30.11 in 6.0 mi West 3.5 mph - N/A Rain Light Rain
9:15 PM 35.6 °F 29.9 °F 33.8 °F 93% 30.11 in 9.0 mi West 6.9 mph - N/A Rain Light Rain
9:35 PM 35.6 °F 29.9 °F 33.8 °F 93% 30.10 in 10.0 mi West 6.9 mph - N/A   Light Drizzle
9:55 PM 33.8 °F 30.8 °F 32.0 °F 93% 30.10 in 10.0 mi West 3.5 mph - N/A   Light Drizzle
10:15 PM 33.8 °F 27.7 °F 32.0 °F 93% 30.10 in 10.0 mi WSW 6.9 mph - N/A Rain Light Rain
10:35 PM 33.8 °F 29.6 °F 32.0 °F 93% 30.09 in 10.0 mi West 4.6 mph - N/A   Overcast
10:55 PM 33.8 °F 28.6 °F 32.0 °F 93% 30.09 in 10.0 mi WSW 5.8 mph - N/A   Overcast
11:15 PM 33.8 °F 30.8 °F 32.0 °F 93% 30.09 in 10.0 mi WSW 3.5 mph - N/A   Overcast
11:35 PM 33.8 °F 30.8 °F 32.0 °F 93% 30.10 in 10.0 mi WSW 3.5 mph - N/A   Overcast
11:55 PM 33.8 °F 30.8 °F 32.0 °F 93% 30.08 in 10.0 mi West 3.5 mph - N/A   Overcast